DW5078 Weather Reports


Display with metric or nautical units.
time (UTC)temp
F
wind
direction
speed
MPH
gust
MPH
rain 1hr
in
rain 24hr
in
rain mn
in
humidity
%
barometer
mb
20260904230802 96 134 0.0 0.0 0.00 0.00 0.00 51 1005.9
20260904225802 96 134 0.0 0.0 0.00 0.00 0.00 50 1005.8
20260904224802 96 134 0.0 0.0 0.00 0.00 0.00 50 1005.9
20260904223802 96 134 0.0 1.0 0.00 0.00 0.00 50 1006.0
20260904222802 96 134 0.0 1.0 0.00 0.00 0.00 51 1006.0
20260904221802 96 133 0.0 0.0 0.00 0.00 0.00 50 1006.1
20260904220802 96 134 0.0 0.0 0.00 0.00 0.00 49 1006.0
20260904215802 97 134 0.0 0.0 0.00 0.00 0.00 49 1006.2
20260904214802 97 134 0.0 0.0 0.00 0.00 0.00 49 1006.3
20260904213802 97 134 0.0 0.0 0.00 0.00 0.00 49 1006.4
20260904212802 97 133 0.0 0.0 0.00 0.00 0.00 48 1006.4
20260904211802 98 134 0.0 0.0 0.00 0.00 0.00 48 1006.5
20260904210802 98 134 0.0 0.0 0.00 0.00 0.00 49 1006.7
20260904205802 97 134 0.0 0.0 0.00 0.00 0.00 50 1006.8
20260904204802 97 134 0.0 0.0 0.00 0.00 0.00 49 1006.8
20260904203802 97 134 0.0 1.0 0.00 0.00 0.00 50 1006.8
20260904202802 97 134 0.0 1.0 0.00 0.00 0.00 50 1006.9
20260904201802 96 134 0.0 0.0 0.00 0.00 0.00 51 1007.2
20260904200802 96 134 0.0 0.0 0.00 0.00 0.00 50 1007.3
20260904195802 97 134 0.0 0.0 0.00 0.00 0.00 50 1007.5
20260904194802 97 134 0.0 0.0 0.00 0.00 0.00 50 1007.7
20260904193802 96 134 0.0 0.0 0.00 0.00 0.00 50 1007.8
20260904192802 96 134 0.0 1.0 0.00 0.00 0.00 50 1007.9
20260904191802 96 133 0.0 0.0 0.00 0.00 0.00 51 1008.0
20260904190802 96 134 0.0 0.0 0.00 0.00 0.00 53 1008.0
20260904185802 95 134 0.0 0.0 0.00 0.00 0.00 55 1008.2
20260904184802 95 134 0.0 0.0 0.00 0.00 0.00 54 1008.3
20260904183802 94 133 0.0 0.0 0.00 0.00 0.00 55 1008.5
20260904182802 94 134 0.0 0.0 0.00 0.00 0.00 54 1008.8
20260904181802 94 134 0.0 0.0 0.00 0.00 0.00 54 1008.8
20260904180802 94 134 0.0 0.0 0.00 0.00 0.00 56 1009.0
20260904175802 94 134 0.0 0.0 0.00 0.00 0.00 58 1009.1
20260904174802 94 133 0.0 0.0 0.00 0.00 0.00 58 1009.3
20260904173802 93 134 0.0 0.0 0.00 0.00 0.00 60 1009.4
20260904172802 93 134 0.0 0.0 0.00 0.00 0.00 60 1009.5
20260904171802 92 133 0.0 0.0 0.00 0.00 0.00 62 1009.7
20260904170802 92 134 0.0 0.0 0.00 0.00 0.00 61 1009.7
20260904165802 92 134 0.0 0.0 0.00 0.00 0.00 63 1009.8
20260904164802 91 134 0.0 0.0 0.00 0.00 0.00 61 1009.9
20260904163802 91 134 0.0 0.0 0.00 0.00 0.00 65 1009.9
20260904162802 90 134 0.0 0.0 0.00 0.00 0.00 66 1009.9
20260904161802 90 134 0.0 0.0 0.00 0.00 0.00 66 1009.9
20260904160802 89 134 0.0 0.0 0.00 0.00 0.00 66 1009.9
20260904155802 89 133 0.0 0.0 0.00 0.00 0.00 68 1009.9
20260904154802 89 134 0.0 0.0 0.00 0.00 0.00 71 1009.8
20260904153802 88 134 0.0 0.0 0.00 0.00 0.00 73 1009.7
20260904152802 88 134 0.0 0.0 0.00 0.00 0.00 72 1009.8
20260904151801 88 134 0.0 0.0 0.00 0.00 0.00 74 1009.8
20260904150801 87 134 0.0 0.0 0.00 0.00 0.00 77 1009.8
20260904145801 87 134 0.0 0.0 0.00 0.00 0.00 77 1009.7
20260904144801 86 133 0.0 0.0 0.00 0.00 0.00 78 1009.7
20260904143801 85 133 0.0 0.0 0.00 0.00 0.00 81 1009.8
20260904142801 84 134 0.0 0.0 0.00 0.00 0.00 83 1009.8
20260904141801 84 134 0.0 0.0 0.00 0.00 0.00 83 1009.8
20260904140801 83 133 0.0 0.0 0.00 0.00 0.00 67 1009.8
20260904135801 85 134 0.0 0.0 0.00 0.00 0.00 67 1009.8
20260904134801 85 134 0.0 0.0 0.00 0.00 0.00 67 1009.8
20260904133801 85 134 0.0 0.0 0.00 0.00 0.00 67 1009.6
20260904132801 85 134 0.0 0.0 0.00 0.00 0.00 67 1009.5
20260904131802 85 134 0.0 0.0 0.00 0.00 0.00 67 1009.3
20260904130801 85 134 0.0 0.0 0.00 0.00 0.00 67 1009.3
20260904125801 85 134 0.0 0.0 0.00 0.00 0.00 67 1009.1
20260904124801 85 134 0.0 0.0 0.00 0.00 0.00 67 1009.1
20260904123801 85 134 0.0 0.0 0.00 0.00 0.00 67 1009.1
20260904122801 85 134 0.0 0.0 0.00 0.00 0.00 67 1009.0
20260904121801 85 134 0.0 0.0 0.00 0.00 0.00 67 1008.9
20260904120801 85 134 0.0 0.0 0.00 0.00 0.00 67 1008.9
20260904115801 85 134 0.0 0.0 0.00 0.00 0.00 67 1008.9
20260904114801 85 134 0.0 0.0 0.00 0.00 0.00 67 1008.8
20260904113801 85 134 0.0 0.0 0.00 0.00 0.00 67 1008.8
20260904112801 85 134 0.0 0.0 0.00 0.00 0.00 67 1008.7
20260904111801 85 134 0.0 0.0 0.00 0.00 0.00 67 1008.5
20260904110801 85 134 0.0 0.0 0.00 0.00 0.00 67 1008.6
20260904105801 85 134 0.0 0.0 0.00 0.00 0.00 67 1008.7
20260904104801 85 134 0.0 0.0 0.00 0.00 0.00 67 1008.5
20260904103801 85 134 0.0 0.0 0.00 0.00 0.00 67 1008.5
20260904102801 85 134 0.0 0.0 0.00 0.00 0.00 67 1008.3
20260904101801 85 134 0.0 0.0 0.00 0.00 0.00 67 1008.3
20260904100801 85 134 0.0 0.0 0.00 0.00 0.00 67 1008.3
20260904095801 85 134 0.0 0.0 0.00 0.00 0.00 67 1008.2
20260904094801 85 134 0.0 0.0 0.00 0.00 0.00 67 1008.2
20260904093801 85 134 0.0 0.0 0.00 0.00 0.00 67 1008.2
20260904092801 85 134 0.0 0.0 0.00 0.00 0.00 67 1008.1
20260904091801 85 134 0.0 0.0 0.00 0.00 0.00 67 1008.2
20260904090801 85 134 0.0 0.0 0.00 0.00 0.00 67 1008.3
20260904085801 85 134 0.0 0.0 0.00 0.00 0.00 67 1008.3
20260904084801 85 134 0.0 0.0 0.00 0.00 0.00 67 1008.2
20260904083801 85 134 0.0 0.0 0.00 0.00 0.00 67 1008.2
20260904082801 85 134 0.0 0.0 0.00 0.00 0.00 67 1008.1
20260904081801 85 134 0.0 0.0 0.00 0.00 0.00 67 1008.0
20260904080801 85 134 0.0 0.0 0.00 0.00 0.00 67 1008.1
20260904075801 85 134 0.0 0.0 0.00 0.00 0.00 67 1008.0
20260904074801 85 134 0.0 0.0 0.00 0.00 0.00 67 1008.0
20260904073800 85 134 0.0 0.0 0.00 0.00 0.00 67 1008.0
20260904072800 85 134 0.0 0.0 0.00 0.00 0.00 67 1008.0
20260904071800 85 134 0.0 0.0 0.00 0.00 0.00 67 1008.0
20260904070800 85 134 0.0 0.0 0.00 0.00 0.00 67 1008.1
20260904065800 85 134 0.0 0.0 0.00 0.00 0.00 67 1008.2
20260904064800 85 134 0.0 0.0 0.00 0.00 0.00 67 1008.2
20260904063800 85 134 0.0 0.0 0.00 0.00 0.00 67 1008.4
20260904062800 85 134 0.0 0.0 0.00 0.00 0.00 67 1008.2
20260904061800 85 134 0.0 0.0 0.00 0.00 0.00 67 1008.3
20260904060800 85 134 0.0 0.0 0.00 0.00 0.00 67 1008.3
20260904055800 85 134 0.0 0.0 0.00 0.00 0.00 67 1008.2
20260904054800 85 134 0.0 0.0 0.00 0.00 0.00 67 1008.3
20260904053800 85 134 0.0 0.0 0.00 0.00 0.00 67 1008.4
20260904052800 85 134 0.0 0.0 0.00 0.00 0.00 67 1008.4
20260904051800 85 134 0.0 0.0 0.00 0.00 0.00 67 1008.3
20260904050800 85 134 0.0 0.0 0.00 0.00 0.00 67 1008.2
20260904045800 85 134 0.0 0.0 0.00 0.00 0.00 67 1008.1
20260904044800 85 134 0.0 0.0 0.00 0.00 0.00 67 1008.1
20260904043800 85 134 0.0 0.0 0.00 0.00 0.00 67 1008.2
20260904042800 85 134 0.0 0.0 0.00 0.00 0.00 67 1008.1
20260904041800 85 134 0.0 0.0 0.00 0.00 0.00 67 1008.2
20260904040800 85 134 0.0 0.0 0.00 0.00 0.00 67 1008.3
20260904035800 85 134 0.0 0.0 0.00 0.00 0.00 67 1008.4
20260904034800 85 134 0.0 0.0 0.00 0.00 0.00 67 1008.4
20260904033800 85 134 0.0 0.0 0.00 0.00 0.00 67 1008.3
20260904032800 85 134 0.0 0.0 0.00 0.00 0.00 67 1008.4
20260904031800 85 134 0.0 0.0 0.00 0.00 0.00 67 1008.4
20260904030800 85 134 0.0 0.0 0.00 0.00 0.00 67 1008.3
20260904025800 85 134 0.0 0.0 0.00 0.00 0.00 67 1008.2
20260904024800 85 134 0.0 0.0 0.00 0.00 0.00 67 1007.9
20260904023800 85 134 0.0 0.0 0.00 0.00 0.00 67 1007.8
20260904022800 85 134 0.0 0.0 0.00 0.00 0.00 67 1007.7
20260904021800 85 134 0.0 0.0 0.00 0.00 0.00 67 1007.6
20260904020800 85 134 0.0 0.0 0.00 0.00 0.00 67 1007.4
20260904015800 85 134 0.0 0.0 0.00 0.00 0.00 67 1007.2
20260904014800 85 134 0.0 0.0 0.00 0.00 0.00 67 1007.0
20260904013800 85 134 0.0 0.0 0.00 0.00 0.00 67 1006.8
20260904012800 85 134 0.0 0.0 0.00 0.00 0.00 67 1006.7
20260904011800 85 134 0.0 0.0 0.00 0.00 0.00 67 1006.6
20260904010800 85 134 0.0 0.0 0.00 0.00 0.00 67 1006.5
20260904005800 85 134 0.0 0.0 0.00 0.00 0.00 67 1006.5
20260904004800 85 134 0.0 0.0 0.00 0.00 0.00 67 1006.5
20260904003800 86 134 0.0 0.0 0.00 0.00 0.00 68 1006.5
20260904002800 87 134 0.0 0.0 0.00 0.00 0.00 68 1006.5
20260904001800 87 134 0.0 0.0 0.00 0.00 0.00 68 1006.5
20260904000800 88 134 0.0 0.0 0.00 0.00 0.00 68 1006.5
20260903235800 88 134 0.0 0.0 0.00 0.00 0.00 68 1006.4
20260903234800 88 134 0.0 1.0 0.00 0.00 0.00 66 1006.2
20260903233800 89 134 0.0 0.0 0.00 0.00 0.00 66 1006.1
20260903232800 89 134 0.0 0.0 0.00 0.00 0.00 65 1005.9
20260903231759 89 134 0.0 1.0 0.00 0.00 0.00 64 1005.9